GIA284 WADD-WATT

Flight info

Callsign GIA284
Flight time N/A
Altitude 33000
Route LEDOM W33 WGP
Aircraft B738/M-SDE2E3FGHIRWXY/LB1

Departure

Time 2026-05-07 17:53
Airport Denpasar I Gusti Ngurah Rai International Airport (WADD)

Arrival

Time N/A
Airport El Tari Airport (WATT)
Time Latitude Longitude Altitude Speed Heading
2026-05-07 17:35 -8.74569 115.16341 32 ft 0 kts 358°
2026-05-07 17:45 -8.74570 115.16341 33 ft 0 kts 358°
2026-05-07 17:45 -8.74575 115.16341 33 ft 2 kts 356°
2026-05-07 17:46 -8.74591 115.16342 32 ft 2 kts 356°
2026-05-07 17:46 -8.74608 115.16343 32 ft 2 kts 355°
2026-05-07 17:46 -8.74624 115.16344 29 ft 2 kts 354°
2026-05-07 17:46 -8.74641 115.16346 30 ft 2 kts 352°
2026-05-07 17:47 -8.74657 115.16349 30 ft 2 kts 348°
2026-05-07 17:47 -8.74673 115.16353 31 ft 2 kts 340°
2026-05-07 17:47 -8.74688 115.16361 29 ft 2 kts 312°
2026-05-07 17:47 -8.74694 115.16373 28 ft 1 kts 271°
2026-05-07 17:48 -8.74694 115.16377 28 ft 0 kts 268°
2026-05-07 17:49 -8.74694 115.16375 28 ft 1 kts 268°
2026-05-07 17:49 -8.74695 115.16329 32 ft 12 kts 269°
2026-05-07 17:49 -8.74700 115.16224 32 ft 16 kts 267°
2026-05-07 17:50 -8.74704 115.16115 32 ft 15 kts 268°
2026-05-07 17:50 -8.74708 115.16011 32 ft 15 kts 268°
2026-05-07 17:50 -8.74712 115.15911 32 ft 14 kts 268°
2026-05-07 17:50 -8.74717 115.15812 32 ft 15 kts 267°
2026-05-07 17:51 -8.74721 115.15706 32 ft 16 kts 267°
2026-05-07 17:51 -8.74726 115.15593 31 ft 17 kts 268°
2026-05-07 17:51 -8.74731 115.15474 31 ft 17 kts 267°
2026-05-07 17:51 -8.74795 115.15391 30 ft 17 kts 184°
2026-05-07 17:52 -8.74891 115.15429 28 ft 16 kts 110°
2026-05-07 17:52 -8.74891 115.15570 28 ft 32 kts 86°
2026-05-07 17:52 -8.74870 115.16056 28 ft 105 kts 88°
2026-05-07 17:52 -8.74833 115.17008 29 ft 164 kts 88°
2026-05-07 17:53 -8.74790 115.18255 554 ft 177 kts 91°
2026-05-07 17:53 -8.74762 115.19462 1545 ft 175 kts 90°
2026-05-07 17:53 -8.74708 115.20794 1919 ft 205 kts 89°
2026-05-07 17:53 -8.74642 115.22305 2269 ft 223 kts 88°
2026-05-07 17:54 -8.74571 115.23908 2848 ft 234 kts 89°
2026-05-07 17:54 -8.74497 115.25616 3354 ft 251 kts 88°
2026-05-07 17:54 -8.74420 115.27404 4124 ft 258 kts 89°
2026-05-07 17:54 -8.74342 115.29238 4933 ft 264 kts 89°
2026-05-07 17:55 -8.74263 115.31100 5764 ft 267 kts 89°
2026-05-07 17:55 -8.74168 115.33379 6681 ft 274 kts 89°
2026-05-07 17:55 -8.74087 115.35305 7489 ft 274 kts 89°
2026-05-07 17:55 -8.74006 115.37261 8176 ft 282 kts 88°
2026-05-07 17:56 -8.73923 115.39259 8912 ft 287 kts 88°
2026-05-07 17:56 -8.73838 115.41291 9665 ft 291 kts 87°
2026-05-07 17:56 -8.73751 115.43359 10294 ft 299 kts 87°
2026-05-07 17:56 -8.73661 115.45514 10733 ft 313 kts 88°
2026-05-07 17:57 -8.73569 115.47734 11333 ft 319 kts 88°